Temp
5 5 4 4 3 3 3 2 2 1 1 0 0 -0 -1 -1 -2 -2 -3 -4 -4 -4 -4 -5 -5 -5 -6 -6 -6 -7 -8 -8 -7 -7 -7 -7 -7 -7 -7 -7 -6 -6 -6
5 4 4 3 3 3 2 1 1 0 -0 -1 -1 -1 -2 -2 -3 -3 -4 -4 -5 -5 -5 -5 -6 -6 -6 -7 -8 -8 -9 -9 -9 -8 -8 -8 -7 -8 -8 -7 -7 -6 -6
4 4 4 3 2 1 0 -0 -0 -1 -1 -1 -2 -2 -2 -3 -4 -4 -5 -5 -5 -5 -6 -6 -6 -7 -8 -8 -9 -9 -9 -9 -9 -9 -9 -8 -8 -9 -8 -8 -7 -7 -7
4 3 2 1 0 -0 -1 -1 -1 -1 -1 -2 -2 -3 -3 -4 -4 -5 -5 -5 -5 -6 -6 -6 -7 -8 -9 -9 -10 -10 -10 -10 -10 -10 -9 -9 -9 -9 -9 -9 -8 -8 -7
2 1 1 0 -0 -1 -1 -2 -2 -2 -2 -3 -3 -3 -3 -4 -5 -5 -5 -5 -6 -6 -7 -7 -7 -8 -8 -9 -11 -10 -10 -11 -11 -10 -10 -10 -10 -9 -9 -9 -9 -9 -8
1 1 -0 -1 -1 -2 -2 -2 -3 -3 -3 -4 -4 -4 -5 -5 -5 -5 -6 -6 -6 -7 -7 -7 -8 -8 -10 -10 -11 -11 -12 -12 -11 -11 -10 -10 -10 -9 -10 -10 -10 -9 -9
0 0 -0 -1 -2 -2 -3 -3 -3 -3 -4 -5 -5 -5 -5 -5 -6 -6 -6 -7 -7 -8 -8 -8 -8 -10 -11 -12 -12 -12 -11 -11 -11 -11 -11 -11 -10 -10 -10 -10 -9 -10 -9
0 0 -0 -1 -2 -3 -4 -4 -4 -4 -4 -4 -5 -5 -6 -6 -6 -7 -7 -7 -8 -8 -8 -9 -10 -12 -12 -12 -12 -11 -12 -11 -11 -11 -11 -11 -10 -10 -10 -10 -10 -10 -10
0 -0 -1 -1 -2 -4 -4 -4 -4 -4 -5 -5 -5 -6 -6 -7 -7 -7 -8 -8 -8 -8 -9 -10 -12 -13 -13 -13 -12 -12 -12 -12 -11 -12 -11 -11 -10 -10 -10 -10 -10 -10 -10
-1 -1 -1 -2 -3 -4 -5 -5 -5 -6 -6 -6 -6 -6 -7 -7 -8 -8 -8 -9 -9 -9 -11 -12 -13 -13 -13 -13 -13 -13 -13 -12 -12 -12 -12 -11 -11 -10 -10 -10 -10 -10 -10
-1 -1 -2 -3 -3 -4 -5 -6 -6 -6 -6 -6 -7 -7 -7 -8 -8 -8 -9 -9 -10 -12 -12 -12 -13 -12 -14 -14 -14 -14 -13 -13 -12 -13 -12 -12 -11 -11 -10 -9 -9 -10 -10
-2 -2 -2 -3 -3 -4 -6 -6 -7 -7 -7 -7 -7 -7 -8 -8 -8 -9 -9 -10 -10 -11 -11 -12 -12 -12 -12 -13 -13 -14 -13 -13 -13 -13 -13 -12 -12 -11 -10 -10 -9 -9 -9
-2 -2 -3 -4 -5 -6 -6 -7 -7 -7 -7 -7 -8 -8 -8 -9 -9 -9 -10 -10 -10 -11 -11 -11 -11 -12 -12 -13 -13 -13 -13 -13 -13 -13 -13 -13 -12 -11 -10 -10 -9 -9 -8
-2 -4 -5 -5 -6 -6 -7 -7 -7 -8 -8 -8 -9 -9 -9 -9 -9 -10 -10 -10 -10 -11 -11 -11 -11 -12 -12 -12 -12 -12 -13 -13 -13 -13 -13 -12 -11 -11 -10 -10 -9 -9 -8
-4 -6 -6 -6 -7 -7 -7 -8 -8 -8 -9 -9 -9 -10 -10 -10 -10 -10 -10 -11 -11 -11 -11 -11 -11 -11 -11 -12 -12 -12 -13 -13 -13 -13 -13 -12 -12 -11 -11 -10 -10 -9 -9
-7 -7 -7 -7 -7 -8 -8 -8 -8 -9 -9 -10 -10 -10 -10 -10 -10 -10 -10 -11 -11 -11 -11 -11 -11 -11 -12 -12 -12 -12 -13 -13 -13 -13 -13 -13 -12 -12 -11 -11 -11 -10 -10
-7 -8 -8 -8 -8 -8 -8 -9 -9 -9 -9 -10 -10 -10 -10 -10 -10 -10 -11 -11 -11 -11 -11 -11 -11 -12 -12 -12 -12 -13 -13 -13 -13 -13 -13 -13 -13 -13 -12 -12 -12 -12 -11
-8 -8 -8 -8 -8 -8 -9 -9 -9 -10 -10 -10 -10 -10 -10 -10 -10 -10 -11 -11 -11 -11 -11 -12 -11 -12 -12 -12 -12 -12 -13 -13 -13 -13 -13 -13 -13 -13 -13 -13 -13 -12 -12
-8 -7 -8 -8 -9 -9 -9 -9 -9 -10 -10 -10 -10 -10 -10 -10 -10 -10 -10 -11 -11 -11 -11 -12 -12 -12 -12 -12 -12 -12 -13 -13 -13 -13 -13 -13 -13 -13 -13 -13 -13 -13 -12
-8 -8 -8 -8 -9 -9 -9 -9 -9 -10 -10 -10 -10 -10 -10 -11 -10 -10 -10 -10 -10 -11 -11 -11 -12 -12 -12 -12 -12 -13 -13 -13 -13 -13 -13 -13 -14 -14 -14 -14 -14 -14 -13
-7 -8 -8 -8 -8 -8 -8 -9 -9 -9 -10 -10 -10 -10 -10 -10 -10 -10 -10 -10 -10 -10 -11 -11 -11 -11 -12 -12 -12 -12 -13 -13 -13 -13 -13 -13 -13 -13 -14 -14 -14 -14 -13
-7 -7 -7 -7 -7 -8 -8 -9 -9 -9 -9 -9 -10 -10 -10 -10 -10 -10 -10 -10 -10 -10 -11 -11 -11 -11 -12 -12 -12 -13 -13 -13 -13 -13 -13 -13 -13 -13 -13 -13 -13 -13 -13
-7 -7 -8 -8 -8 -8 -8 -8 -8 -8 -9 -9 -9 -9 -10 -10 -10 -10 -10 -10 -10 -10 -10 -11 -11 -11 -12 -12 -12 -13 -13 -13 -13 -13 -13 -13 -13 -13 -13 -13 -13 -13 -13
-8 -8 -8 -8 -8 -8 -8 -8 -8 -8 -8 -8 -8 -8 -9 -9 -10 -10 -10 -10 -10 -10 -10 -10 -11 -11 -11 -12 -12 -13 -13 -13 -13 -13 -13 -13 -13 -13 -14 -14 -13 -13 -13
-9 -9 -9 -9 -8 -8 -8 -8 -8 -8 -8 -8 -8 -8 -8 -8 -9 -10 -10 -10 -10 -10 -10 -10 -11 -11 -11 -12 -12 -13 -13 -13 -13 -13 -13 -13 -13 -13 -13 -14 -14 -13 -13
-9 -9 -9 -9 -9 -9 -9 -9 -9 -8 -8 -8 -8 -8 -8 -8 -8 -9 -10 -10 -10 -10 -10 -10 -10 -11 -11 -12 -12 -13 -13 -13 -13 -13 -13 -14 -14 -14 -14 -14 -14 -14 -14
Height
1554 1553 1553 1551 1549 1546 1544 1541 1537 1534 1531 1527 1525 1521 1518 1515 1513 1511 1508 1506 1506 1505 1502 1500 1498 1495 1492 1489 1485 1482 1479 1476 1468 1463 1462 1459 1456 1453 1450 1449 1447 1446 1446
1552 1551 1549 1547 1545 1542 1539 1536 1533 1529 1526 1522 1518 1514 1512 1509 1507 1504 1501 1502 1501 1500 1498 1495 1493 1489 1485 1481 1478 1475 1472 1469 1464 1458 1455 1452 1450 1447 1445 1442 1441 1440 1439
1549 1548 1546 1543 1540 1538 1535 1531 1527 1522 1518 1514 1510 1508 1505 1503 1501 1498 1497 1497 1496 1495 1493 1490 1486 1482 1479 1475 1472 1468 1466 1462 1458 1453 1447 1447 1443 1441 1438 1436 1434 1433 1432
1546 1544 1541 1538 1536 1533 1529 1525 1521 1516 1512 1508 1505 1502 1500 1497 1494 1492 1493 1493 1491 1490 1487 1484 1480 1476 1472 1469 1465 1462 1459 1455 1452 1448 1443 1439 1437 1435 1433 1430 1428 1427 1425
1541 1539 1536 1534 1531 1528 1524 1519 1515 1511 1506 1502 1499 1496 1494 1493 1491 1491 1490 1489 1487 1484 1481 1477 1473 1469 1465 1461 1458 1455 1452 1449 1445 1441 1437 1434 1431 1429 1427 1425 1422 1421 1419
1536 1534 1531 1529 1526 1522 1518 1514 1510 1506 1501 1498 1496 1494 1491 1490 1489 1488 1487 1485 1482 1478 1474 1470 1466 1461 1457 1453 1449 1446 1444 1441 1439 1436 1432 1428 1425 1423 1422 1420 1417 1416 1413
1532 1529 1526 1523 1520 1516 1513 1509 1505 1502 1498 1495 1492 1491 1489 1488 1486 1485 1483 1480 1477 1473 1469 1464 1460 1455 1451 1447 1444 1441 1439 1436 1433 1429 1425 1423 1419 1418 1416 1414 1412 1411 1409
1526 1523 1520 1516 1513 1510 1507 1503 1500 1496 1493 1491 1490 1488 1486 1484 1483 1481 1479 1476 1472 1469 1465 1460 1454 1450 1447 1443 1440 1437 1433 1431 1427 1423 1419 1416 1413 1410 1409 1408 1406 1405 1404
1521 1518 1514 1510 1507 1504 1501 1497 1494 1490 1488 1486 1485 1484 1483 1481 1479 1477 1474 1471 1467 1464 1460 1455 1450 1446 1442 1439 1436 1431 1427 1424 1421 1417 1413 1410 1406 1402 1401 1400 1399 1399 1398
1515 1512 1508 1504 1501 1498 1495 1492 1488 1485 1483 1482 1481 1480 1479 1478 1476 1473 1470 1467 1464 1460 1456 1451 1446 1442 1438 1435 1431 1427 1422 1419 1415 1410 1407 1404 1401 1397 1395 1394 1393 1393 1394
1510 1506 1503 1499 1496 1492 1489 1486 1483 1481 1480 1479 1478 1477 1476 1474 1471 1469 1466 1463 1460 1456 1452 1447 1443 1437 1434 1430 1427 1423 1419 1414 1410 1407 1403 1400 1398 1395 1392 1390 1389 1387 1387
1504 1500 1497 1494 1489 1486 1484 1481 1479 1478 1476 1476 1475 1474 1472 1470 1467 1465 1463 1460 1457 1453 1449 1444 1439 1434 1430 1426 1422 1418 1415 1411 1407 1404 1401 1398 1395 1392 1389 1387 1385 1383 1381
1498 1495 1491 1488 1484 1482 1480 1478 1476 1475 1474 1473 1471 1470 1468 1466 1464 1462 1459 1457 1454 1450 1446 1441 1437 1432 1427 1423 1420 1415 1412 1408 1405 1402 1399 1396 1392 1389 1387 1384 1382 1380 1377
1492 1489 1487 1483 1481 1478 1476 1475 1473 1472 1471 1469 1467 1466 1464 1462 1460 1458 1456 1453 1450 1447 1443 1438 1434 1430 1426 1422 1418 1414 1410 1407 1403 1400 1397 1394 1391 1388 1386 1384 1381 1379 1377
1487 1484 1482 1479 1477 1476 1473 1472 1470 1468 1466 1464 1463 1461 1460 1458 1457 1455 1453 1450 1447 1444 1440 1436 1432 1428 1425 1421 1417 1414 1410 1406 1402 1399 1396 1393 1391 1388 1386 1384 1382 1380 1379
1483 1480 1478 1476 1473 1471 1470 1468 1466 1463 1461 1460 1458 1457 1456 1454 1453 1452 1450 1447 1444 1441 1438 1434 1430 1427 1423 1420 1416 1413 1409 1405 1402 1399 1396 1394 1391 1388 1386 1384 1382 1381 1380
1479 1476 1473 1471 1469 1467 1466 1463 1461 1459 1457 1455 1454 1453 1452 1451 1449 1448 1446 1444 1441 1439 1436 1432 1428 1425 1422 1419 1415 1412 1409 1405 1402 1399 1396 1393 1391 1389 1387 1384 1382 1381 1380
1474 1472 1469 1467 1465 1463 1460 1458 1457 1454 1452 1450 1449 1447 1447 1446 1445 1444 1442 1440 1438 1435 1433 1429 1426 1423 1420 1417 1414 1412 1409 1405 1402 1399 1396 1393 1390 1388 1386 1385 1383 1381 1379
1468 1466 1464 1461 1459 1457 1455 1453 1451 1449 1447 1445 1443 1442 1442 1441 1440 1439 1438 1436 1434 1432 1429 1426 1424 1421 1418 1415 1413 1410 1407 1404 1401 1399 1395 1393 1390 1388 1386 1384 1382 1380 1379
1463 1460 1458 1455 1453 1451 1449 1447 1445 1443 1441 1439 1438 1437 1436 1436 1434 1433 1432 1431 1429 1427 1425 1423 1420 1418 1415 1413 1411 1408 1406 1403 1401 1398 1395 1392 1390 1388 1386 1384 1382 1380 1378
1457 1454 1452 1449 1446 1445 1443 1441 1439 1437 1435 1433 1432 1431 1431 1429 1428 1427 1426 1425 1423 1422 1421 1418 1416 1414 1412 1410 1408 1406 1404 1402 1399 1397 1394 1392 1390 1387 1385 1383 1381 1380 1378
1450 1447 1445 1442 1440 1438 1436 1434 1432 1431 1429 1427 1425 1424 1424 1422 1421 1421 1420 1419 1418 1416 1415 1414 1412 1410 1409 1407 1405 1403 1402 1400 1398 1396 1393 1391 1389 1387 1385 1383 1381 1379 1378
1442 1439 1437 1434 1432 1430 1428 1427 1425 1423 1421 1420 1418 1417 1416 1415 1414 1413 1413 1412 1411 1410 1409 1408 1407 1405 1404 1403 1402 1400 1399 1397 1396 1394 1392 1390 1388 1387 1385 1383 1381 1379 1378
1435 1433 1430 1427 1425 1422 1420 1418 1416 1415 1413 1412 1410 1409 1407 1406 1406 1405 1405 1405 1404 1403 1403 1402 1401 1400 1399 1399 1397 1397 1395 1394 1393 1392 1390 1389 1387 1386 1384 1383 1381 1379 1378
1428 1425 1423 1420 1418 1415 1413 1410 1408 1406 1404 1402 1401 1400 1399 1397 1396 1397 1397 1396 1396 1396 1396 1396 1395 1395 1394 1394 1393 1392 1392 1391 1390 1389 1388 1387 1386 1385 1383 1382 1381 1379 1378
1422 1419 1416 1414 1411 1409 1406 1403 1401 1399 1396 1394 1392 1390 1389 1388 1388 1388 1388 1388 1388 1388 1389 1389 1390 1389 1389 1389 1388 1388 1388 1387 1387 1387 1386 1385 1384 1383 1382 1381 1380 1379 1377
Wind_Speed
10 10 12 17 20 20 21 22 22 23 22 22 22 24 24 24 23 24 19 16 14 16 18 19 19 21 25 27 28 24 22 22 31 33 29 27 27 27 25 23 21 22 22
9 12 15 16 20 23 21 19 21 25 24 24 23 23 25 24 22 25 15 11 13 16 18 20 23 27 28 24 21 21 20 21 25 30 29 27 25 23 24 23 21 22 23
10 14 19 23 22 19 17 21 24 28 26 24 23 24 24 24 24 26 11 10 13 16 20 24 29 28 23 21 21 22 22 23 24 25 30 26 26 23 22 20 21 22 23
16 20 20 17 15 16 21 25 27 26 25 24 22 22 23 23 26 9 8 15 15 19 24 28 29 25 23 23 23 23 23 23 23 26 28 28 24 22 21 21 21 20 21
18 18 16 14 18 20 23 26 26 24 25 25 22 19 17 12 8 10 14 13 18 24 28 28 27 27 29 28 23 22 22 24 25 25 26 25 22 20 20 19 20 19 20
17 16 16 19 21 23 25 26 24 24 23 16 16 14 9 9 10 10 12 17 24 27 27 27 28 29 25 25 25 22 20 20 21 22 24 24 24 23 20 19 19 18 20
17 18 19 20 22 23 23 24 23 21 19 18 14 11 12 11 9 13 18 22 23 23 25 27 27 23 22 18 18 16 18 20 21 23 25 24 24 23 21 20 18 18 19
19 20 22 22 22 22 21 24 23 22 20 20 14 11 11 10 13 17 22 21 21 23 24 24 23 20 18 17 17 21 19 21 20 20 21 24 25 24 21 22 22 22 20
21 22 23 22 22 22 25 26 23 23 21 17 14 11 10 12 16 21 21 20 21 23 23 21 21 18 18 16 20 22 20 19 17 20 22 21 21 22 22 22 22 18 18
22 24 25 24 22 22 26 25 24 23 16 11 11 11 10 15 18 19 19 20 22 23 20 20 20 18 18 19 20 20 20 19 21 20 18 17 17 14 13 17 19 20 18
24 26 26 24 24 25 24 24 24 16 15 13 9 10 14 17 17 16 17 19 20 19 19 20 18 22 19 18 17 16 18 21 20 18 16 15 13 13 12 11 11 15 19
26 26 25 25 25 19 17 19 13 11 11 11 11 14 16 16 15 15 16 17 19 18 20 20 22 21 20 19 17 17 17 17 17 16 14 13 13 13 13 14 12 12 13
27 26 22 23 20 16 16 13 11 11 10 11 13 15 15 14 14 15 16 17 18 19 19 21 20 19 19 17 16 16 15 15 16 14 13 13 14 13 12 11 9 9 10
25 20 19 20 18 13 14 11 11 12 14 15 15 16 14 14 15 15 16 18 18 19 19 20 19 17 17 16 16 15 15 16 15 13 13 13 12 9 9 9 8 8 7
22 20 18 18 14 13 13 12 16 19 20 17 16 14 13 14 14 15 15 15 17 19 19 18 17 16 16 16 15 15 16 16 14 10 11 12 12 11 10 10 9 7 6
20 19 18 18 15 14 14 16 16 17 14 13 12 14 15 15 15 15 15 15 16 17 18 17 16 16 16 16 16 16 16 17 16 12 11 12 12 12 11 10 8 8 6
20 19 19 17 16 16 18 20 18 18 16 17 15 15 15 16 14 14 15 15 16 17 17 16 15 15 15 15 15 15 16 16 16 14 13 12 11 10 10 10 9 8 6
18 20 20 19 17 18 21 19 19 19 18 16 13 15 15 14 14 15 15 15 16 17 17 16 15 14 13 13 14 14 14 15 15 14 13 13 12 11 9 9 9 9 8
19 20 20 20 19 19 17 19 21 21 17 16 16 15 15 16 16 16 15 16 17 17 17 16 15 13 13 12 13 13 14 14 15 14 13 13 12 11 9 9 8 8 9
21 21 21 22 22 22 21 22 22 21 18 17 16 17 17 17 17 17 17 18 18 17 17 16 15 14 13 12 12 12 12 13 13 13 12 12 12 11 10 9 9 8 8
22 22 23 23 21 22 23 23 21 21 20 19 19 18 17 19 20 20 19 19 18 18 17 16 15 14 13 12 11 11 11 11 12 13 12 11 11 10 10 10 9 9 8
25 26 26 27 27 23 23 25 25 23 22 22 21 18 17 21 22 21 19 18 17 18 18 17 16 14 13 11 11 10 10 9 11 11 11 10 10 9 9 9 9 9 8
27 26 26 27 26 25 28 24 22 24 24 23 23 23 22 21 21 21 21 20 19 19 19 18 16 15 13 12 11 10 9 9 9 9 9 9 9 8 8 8 8 8 8
21 22 24 25 23 22 25 25 29 31 27 27 27 27 25 25 23 22 22 22 22 21 19 17 16 15 14 13 11 10 9 8 7 7 8 8 7 7 7 7 7 8 8
23 23 24 23 23 24 23 23 24 25 25 28 30 29 28 25 24 24 22 21 20 21 20 17 15 15 14 13 12 10 9 7 7 7 7 7 7 6 6 6 7 7 7
21 20 22 22 23 24 25 25 24 23 23 23 24 25 27 27 24 22 22 21 20 21 21 20 16 15 14 13 12 11 10 8 8 7 7 6 6 6 6 6 7 7 7
Wind_Direction
323 312 307 312 318 318 313 310 307 311 312 306 305 300 296 292 297 296 275 285 285 297 300 298 298 296 298 298 295 293 290 286 285 292 291 292 291 293 292 287 276 267 273
314 314 316 319 316 315 317 314 316 317 316 311 302 292 291 287 295 288 272 270 291 298 298 297 301 303 303 301 299 297 294 291 288 292 293 296 293 290 288 285 275 266 268
327 321 315 315 319 319 314 316 320 321 319 310 304 298 293 297 303 290 268 277 294 288 298 304 308 307 304 301 302 299 297 293 290 290 292 293 293 289 290 284 278 272 268
317 316 318 321 315 314 318 321 325 326 321 313 304 303 304 300 295 263 272 293 289 297 305 307 307 306 303 303 301 298 296 290 289 290 291 293 291 290 287 284 278 271 270
320 322 324 314 315 319 319 325 328 325 321 314 312 309 308 317 301 292 293 294 300 307 310 309 310 307 304 300 296 294 291 290 290 289 289 290 290 288 285 285 281 277 270
323 322 318 318 319 319 319 325 328 324 320 314 308 312 327 313 304 299 303 304 310 310 310 315 314 311 309 306 303 301 294 291 290 289 289 287 288 286 285 282 280 277 276
318 319 317 313 312 315 317 322 324 322 324 313 320 305 305 298 298 307 310 311 311 314 318 318 316 315 317 314 312 317 313 305 297 295 292 286 288 282 282 280 278 276 273
321 322 320 314 309 310 311 318 319 317 309 308 299 299 296 293 304 309 312 313 316 319 321 322 321 319 317 320 316 312 306 302 297 293 290 289 288 284 275 272 272 275 276
321 323 325 323 316 311 312 313 316 316 311 300 287 289 285 300 307 312 314 317 321 323 325 327 325 318 315 323 313 312 311 311 309 302 298 296 301 284 275 275 273 267 268
323 327 325 321 314 309 311 314 314 316 315 304 285 282 288 301 309 310 314 319 322 326 327 327 327 324 323 318 314 312 315 317 315 316 313 306 309 318 297 273 266 261 258
322 323 321 318 311 306 307 310 312 304 293 292 279 285 300 307 308 310 315 318 323 324 325 328 328 329 327 320 316 317 313 312 320 320 318 315 313 313 314 313 310 267 250
320 320 319 318 318 314 315 318 323 304 288 286 279 293 302 305 307 312 315 316 322 322 328 330 332 335 333 329 328 321 316 319 324 327 325 325 322 316 311 312 304 301 273
317 317 318 324 326 317 316 312 314 305 290 278 285 298 305 306 310 312 314 317 322 328 331 332 333 336 340 339 336 331 332 329 331 334 333 330 330 329 329 328 318 317 295
313 316 317 324 323 313 321 304 299 298 292 288 291 297 299 306 309 311 312 316 324 331 334 337 339 341 342 342 344 345 348 342 337 339 343 347 349 354 1 359 356 356 37
315 315 314 321 316 313 316 308 304 304 304 281 286 291 296 303 305 307 308 313 322 327 334 338 339 343 347 351 353 356 359 360 354 350 355 358 2 5 8 8 11 18 23
316 316 310 313 303 303 305 307 309 323 304 290 285 287 293 299 300 301 303 309 316 325 333 335 339 343 346 348 351 355 358 2 3 358 357 358 360 0 2 2 4 15 20
307 308 305 303 296 295 291 299 301 307 311 291 284 278 285 293 292 295 301 305 313 320 327 331 333 337 342 345 347 351 354 356 359 357 352 350 351 354 356 357 359 358 356
300 305 303 293 293 292 292 294 287 299 304 297 284 271 281 285 286 290 293 298 304 313 318 322 326 329 334 338 341 345 351 354 355 356 355 352 350 346 347 351 355 356 348
300 307 301 289 284 291 295 293 293 298 297 293 294 278 281 277 282 287 286 291 299 303 310 314 318 320 323 328 333 336 343 350 352 353 353 354 355 355 351 347 344 342 343
306 301 307 292 284 287 292 291 291 291 290 290 286 281 284 276 280 284 284 285 290 299 304 309 310 313 314 317 322 329 333 339 346 352 352 353 357 358 358 358 355 356 355
303 306 304 308 300 289 281 286 288 288 287 288 283 283 277 274 277 282 280 279 285 289 295 300 304 306 306 310 314 317 324 333 341 347 351 353 354 2 2 1 4 6 14
296 296 296 298 290 292 293 284 280 282 284 285 287 286 277 271 273 277 278 279 282 283 286 290 296 298 298 301 305 310 314 321 329 336 344 349 354 358 3 7 9 14 19
292 294 296 296 296 292 282 286 287 281 280 281 285 283 278 275 272 274 276 278 278 281 285 281 285 289 291 292 296 299 304 309 319 327 334 341 350 356 0 7 11 12 14
302 301 300 302 301 302 292 293 286 281 283 283 283 282 284 274 272 272 273 275 272 270 277 280 279 281 282 284 287 290 294 299 308 317 324 330 339 348 353 1 7 8 10
303 301 302 303 302 305 307 304 304 295 294 287 286 281 280 283 271 268 272 275 267 261 268 274 277 276 275 276 279 280 282 282 292 303 312 320 326 334 342 347 356 2 5
311 307 303 303 303 303 303 304 306 305 302 301 296 287 279 275 277 266 265 272 265 259 260 264 270 275 271 270 271 272 270 270 276 286 296 304 313 320 329 336 342 349 355